Birmingham, AL

4:54 AM CDT on September 23, 2019 (GMT -0500)
Birmingham International

Weather History for KBHM - August, 2019

Change the Weather History Date:

Sunday, August 25, 2019

  Actual Average Record
Temperature  
Mean Temperature 77 °F 80 °F  
Max Temperature 82 °F 90 °F 102 °F (1938)
Min Temperature 72 °F 70 °F 57 °F (1916)
Cooling Degree Days 12 15  
Month to date cooling degree days 462 396  
Year to date cooling degree days 1851 1559  
Since 1 June cooling degree days 1411 1277  
Growing Degree Days 27 (Base 50)    
Moisture  
Dew Point 71 °F    
Average Humidity 81    
Maximum Humidity 93    
Minimum Humidity 69    
Precipitation  
Precipitation 0.23 in 0.12 in 2.81 in (2008)
Month to date precipitation 2.09 3.24  
Year to date precipitation 33.78 36.39  
Sea Level Pressure  
Sea Level Pressure 30.01 in    
Wind  
Wind Speed 7 mph (ESE)    
Max Wind Speed 14 mph    
Max Gust Speed 20 mph    
Visibility 10 miles    
Events Rain    
T = Trace of Precipitation, MM = Missing Value Source: NWS Daily Summary

Daily Weather History Graph

Daily Weather History Graph

Search for Another Location

Airport or City:

Astronomy

Aug. 25, 2019 Rise Set
Actual Time 6:16 AM CDT 7:21 PM CDT
Civil Twilight 5:50 AM CDT 7:47 PM CDT
Nautical Twilight 5:19 AM CDT 8:17 PM CDT
Astronomical Twilight 4:48 AM CDT 8:49 PM CDT
Moon 12:59 AM CDT (8/25) 3:32 PM CDT (8/25)
Length of Visible Light 13h 56m
Length of Day
13h 05m
Waning Crescent, 29% of the Moon is Illuminated
Aug 25
Waning Crescent
Aug 30
New
Sep 5
First Quarter
Sep 13
Full
Sep 21
Last Quarter

Hourly Weather History & Observations

Time (CDT) Temp. Heat Index Dew Point Humidity Pressure Visibility Wind Dir Wind Speed Gust Speed Precip Events Conditions
12:53 AM 75.0 °F - 72.0 °F 90% 30.00 in 10.0 mi Calm Calm - N/A   Mostly Cloudy
1:53 AM 75.0 °F - 72.0 °F 90% 29.99 in 10.0 mi NNE 3.5 mph - N/A   Overcast
2:53 AM 75.0 °F - 72.0 °F 90% 29.99 in 10.0 mi ENE 4.6 mph - N/A   Partly Cloudy
3:53 AM 75.0 °F - 71.1 °F 87% 29.99 in 10.0 mi East 3.5 mph - N/A   Mostly Cloudy
4:24 AM 75.0 °F - 72.0 °F 90% 30.03 in 10.0 mi South 3.5 mph - N/A   Overcast
4:53 AM 75.0 °F - 72.0 °F 90% 29.99 in 10.0 mi East 4.6 mph - 0.00 in Rain Light Rain
5:53 AM 73.9 °F - 71.1 °F 91% 29.99 in 10.0 mi ENE 5.8 mph - 0.00 in   Overcast
6:46 AM 73.9 °F - 71.1 °F 91% 30.02 in 10.0 mi East 5.8 mph - N/A   Overcast
6:53 AM 73.9 °F - 71.1 °F 91% 30.00 in 10.0 mi East 6.9 mph - N/A   Overcast
7:33 AM 75.0 °F - 71.1 °F 87% 30.04 in 10.0 mi Variable 4.6 mph - N/A   Mostly Cloudy
7:53 AM 75.0 °F - 71.1 °F 87% 30.02 in 10.0 mi ESE 5.8 mph - N/A   Overcast
8:22 AM 75.9 °F - 72.0 °F 87% 30.05 in 10.0 mi Variable 3.5 mph - N/A   Overcast
8:53 AM 77.0 °F - 72.0 °F 84% 30.03 in 10.0 mi East 8.1 mph - N/A   Mostly Cloudy
9:53 AM 78.1 °F - 71.1 °F 79% 30.04 in 10.0 mi Variable 6.9 mph - N/A   Overcast
10:04 AM 79.0 °F - 72.0 °F 79% 30.06 in 10.0 mi Variable 4.6 mph - N/A   Overcast
10:14 AM 79.0 °F - 71.1 °F 77% 30.06 in 10.0 mi ESE 3.5 mph - N/A   Overcast
10:53 AM 78.1 °F - 71.1 °F 79% 30.04 in 10.0 mi ENE 8.1 mph - N/A   Overcast
11:04 AM 77.0 °F - 71.1 °F 82% 30.06 in 10.0 mi ESE 6.9 mph - N/A   Overcast
12:32 PM 79.0 °F - 71.1 °F 77% 30.04 in 10.0 mi East 9.2 mph - N/A   Overcast
12:53 PM 80.1 °F 83.6 °F 71.1 °F 74% 30.02 in 10.0 mi SE 8.1 mph - N/A   Overcast
1:53 PM 81.0 °F 84.4 °F 70.0 °F 69% 29.99 in 10.0 mi ESE 8.1 mph - N/A   Overcast
2:53 PM 81.0 °F 84.4 °F 70.0 °F 69% 29.97 in 10.0 mi ESE 9.2 mph - N/A   Overcast
3:53 PM 79.0 °F - 70.0 °F 74% 29.96 in 10.0 mi SE 6.9 mph - N/A   Overcast
4:53 PM 79.0 °F - 70.0 °F 74% 29.96 in 10.0 mi ESE 6.9 mph - 0.00 in   Overcast
5:33 PM 78.1 °F - 70.0 °F 76% 29.98 in 10.0 mi ENE 5.8 mph - N/A   Mostly Cloudy
6:53 PM 77.0 °F - 70.0 °F 79% 29.96 in 10.0 mi East 8.1 mph - 0.00 in   Overcast
7:53 PM 75.0 °F - 69.1 °F 82% 29.98 in 10.0 mi ESE 9.2 mph 19.6 mph N/A   Overcast
8:23 PM 75.0 °F - 70.0 °F 84% 30.01 in 10.0 mi ESE 10.4 mph - N/A   Overcast
8:41 PM 73.9 °F - 70.0 °F 87% 30.01 in 10.0 mi ESE 8.1 mph - 0.00 in Rain Light Rain
8:53 PM 73.9 °F - 70.0 °F 87% 29.99 in 4.0 mi ESE 8.1 mph - 0.01 in Rain Heavy Rain
9:53 PM 73.0 °F - 70.0 °F 90% 30.00 in 9.0 mi ESE 6.9 mph - 0.15 in Rain Light Rain
10:53 PM 73.0 °F - 70.0 °F 90% 30.01 in 7.0 mi ESE 8.1 mph - 0.02 in Rain Light Rain
11:53 PM 73.0 °F - 70.0 °F 90% 30.00 in 9.0 mi ESE 8.1 mph - 0.03 in Rain Light Rain